Tracking 19242 objects as of 19-Sep-2018
HD Live streaming from Space Station
objects crossing your sky now

FENGYUN 1C DEB

Track FENGYUN 1C DEB now!
10-day predictions


NORAD ID: 41007
Int'l Code: 1999-025EXM
Perigee: 843.4 km
Apogee: 1,123.9 km
Inclination: 100.0 °
Period: 104.6 minutes
Semi major axis: 7354 km
RCS: Unknown
Launch date: May 10, 1999
Source: People's Republic of China (PRC)
Launch site: Taiyaun Space Center, China (TSC)

Note: This is SATELLITE DEBRIS
aabbcc
Your satellite tracking list
Your tracking list is empty




NASA's NSSDC Master Catalog

Two Line Element Set (TLE):
1 41007U 99025EXM 18259.40280513 +.00000502 +00000-0 +49236-3 0  9999
2 41007 099.9691 116.3210 0190703 048.2063 313.5203 13.76448345209467
Source of the keplerian elements: AFSPC